Regional Weather Roundup
Issued by NWS

Home | Current Version | Previous Version | Text Only | Print | Product List | Glossary Off
Versions: 1 2 3 4 5 6 7 8 9 10 11 12 13 14 15 16 17 18 19 20 21 22 23 24 25 26 27 28 29 30 31 32 33 34 35 36 37 38 39 40 41 42 43 44 45 46 47 48 49 50

000
ASUS43 KMKX 241021
RWRWI

WISCONSIN REGIONAL WEATHER ROUNDUP
NATIONAL WEATHER SERVICE MILWAUKEE/SULLIVAN WI
400 AM CST FRI NOV 24 2017

NOTE: "FAIR" INDICATES FEW OR NO CLOUDS BELOW 12,000 FEET WITH NO
SIGNIFICANT WEATHER AND/OR OBSTRUCTIONS TO VISIBILITY.

WIZ001-002-006>008-014>016-023>028-241100-
NORTHWEST WISCONSIN

CITY           SKY/WX    TMP DP  RH WIND       PRES   REMARKS
SUPERIOR ARPT  CLOUDY    42  33  70 SW9       29.33F
ASHLAND        PTCLDY    44  32  62 S12       29.36F
HAYWARD        CLEAR     41  32  70 S10       29.42F
SIREN          CLEAR     44  34  68 S7        29.40F
CUMBERLAND     CLEAR     37  32  81 S8        29.44F WCI  31
RICE LAKE      CLEAR     37  31  79 SE7       29.47F WCI  31
CHETEK         CLEAR     35  30  83 CALM      29.47F
LADYSMITH      CLEAR     38  30  72 SE5       29.48F WCI  35
EAU CLAIRE     CLOUDY    42  33  70 S7        29.49F
MENOMONIE      CLOUDY    43  33  66 SE5       29.48F
NEW RICHMOND   CLEAR     44  33  67 SW10      29.46F
OSCEOLA          N/A     43  35  71 S8        29.47
$$

WIZ003>005-009-010-017-018-241100-
NORTH CENTRAL WISCONSIN

CITY           SKY/WX    TMP DP  RH WIND       PRES   REMARKS
MANITOWISH WTR CLEAR     39  31  72 SW8       29.43F WCI  34
ARBOR VITAE    CLEAR     39  31  71 SW10      29.45F WCI  32
WOODRUFF       CLEAR     39  31  71 SW10      29.45F WCI  32
RHINELANDER    CLEAR     38  29  70 SW14G22   29.47F WCI  30
EAGLE RIVER    CLEAR     38  27  64 SW8       29.44F WCI  32
LAND O LAKES   CLEAR     39  29  66 SW6       29.45F WCI  35
PHILLIPS       CLEAR     40  31  70 SW8       29.46S WCI  35
TOMAHAWK       CLEAR     38  28  68 S6        29.49F WCI  33
MEDFORD        PTCLDY    38  29  69 S9        29.51F WCI  32
MERRILL        CLOUDY    38  28  68 SW7       29.52F WCI  33
$$

WIZ029-030-035-036-043>047-241100-
CENTRAL WISCONSIN

CITY           SKY/WX    TMP DP  RH WIND       PRES   REMARKS
WAUSAU         CLOUDY    37  28  70 CALM      29.53F
MOSINEE        CLOUDY    36  30  80 S9        29.56F WCI  29
MARSHFIELD     PTCLDY    41  28  60 S13       29.53F
STEVENS POINT  CLOUDY    37  28  67 S9        29.57F WCI  31
WAUPACA        CLOUDY    40  29  64 S8        29.61F WCI  35
WAUTOMA        CLOUDY    37  27  67 S8        29.62F WCI  31
WISC RAPIDS    CLOUDY    43  30  60 SW14      29.58F
CAMP DOUGLAS   CLOUDY    47  32  56 S16G25    29.57F
$$

WIZ011>013-019>022-031-037>040-048>050-241100-
NORTHEAST WISCONSIN

CITY           SKY/WX    TMP DP  RH WIND       PRES   REMARKS
ANTIGO         PTCLDY    37  28  71 SW13      29.52F WCI  28
SHAWANO        CLOUDY    39  28  63 SW7       29.57F WCI  34
OCONTO         PTCLDY    38  28  64 SW7       29.58F WCI  33
STURGEON BAY   MOCLDY    37  27  67 S13       29.59F WCI  29
GREEN BAY      CLOUDY    39  30  70 S9        29.60F WCI  33
MANITOWOC      PTCLDY    35  27  72 S9        29.66F WCI  28
APPLETON       MOCLDY    37  27  65 S16       29.60F WCI  28
CLINTONVILLE   PTCLDY    37  27  65 S12       29.58F WCI  30
OSHKOSH        PTCLDY    39  29  67 S20G28    29.63F WCI  29
$$

WIZ032>034-041-042-053>061-241100-
SOUTHWEST WISCONSIN

CITY           SKY/WX    TMP DP  RH WIND       PRES   REMARKS
LA CROSSE      CLEAR     43  32  65 SE9       29.59F
SPARTA         CLEAR     44  33  65 S8        29.60F
VIROQUA        CLEAR     44  34  68 S10G20    29.60F
BOSCOBEL       CLEAR     30  25  81 SW3       29.67F
PRAIRIE DU CHI PTCLDY    43  31  62 E3        29.65F
PLATTEVILLE    CLOUDY    36  31  83 S10       29.70F WCI  28
$$

WIZ056-057-062-063-064-067-068-241100-
SOUTH CENTRAL WISCONSIN

CITY           SKY/WX    TMP DP  RH WIND       PRES   REMARKS
REEDSBURG      PTCLDY    41  30  66 SW7       29.64F
BARABOO/DELLS  PTCLDY    43  30  59 SW13      29.63F
LONE ROCK      NOT AVBL
MINERAL POINT  CLEAR     39  32  75 S10       29.68F WCI  32
MADISON        CLOUDY    38  29  70 S9        29.69F WCI  31
MIDDLETON      CLOUDY    42  31  65 S13       29.68F
WATERTOWN      MOCLDY    37  30  77 S12       29.70F WCI  29
MONROE         CLEAR     34  28  80 S17       29.71F WCI  23
JANESVILLE     CLEAR     36  28  75 S8        29.74F WCI  29
$$

WIZ051-052-058>065-066-070>072-241100-
SOUTHEAST WISCONSIN

CITY           SKY/WX    TMP DP  RH WIND       PRES   REMARKS
MILWAUKEE      PTCLDY    38  28  67 SW13      29.74F WCI  30
WAUKESHA       PTCLDY    36  27  69 SW7       29.73F WCI  30
MILWAUKEE/TIMM PTCLDY    37  27  65 SW10G16   29.73F WCI  30
RACINE         CLEAR     35  27  72 SW9       29.77F WCI  28
BURLINGTON     CLOUDY    35  32  89 S6        29.75F WCI  30
KENOSHA        PTCLDY    37  27  67 SW9       29.76F WCI  30
FOND DU LAC    PTCLDY    40  27  59 S15       29.66F WCI  32
SHEBOYGAN      CLOUDY    40  30  67 SW9       29.67F WCI  34
WEST BEND      PTCLDY    41  30  65 SW8       29.69F
JUNEAU         MOCLDY    36  28  72 S12       29.70F WCI  28
$$

LSZ147-162-241100-
LAKE SUPERIOR

STATION/POSITION TIME  TEMP    WIND        PRES    WAVE
                       AIR SEA DIR/SP/G            HT/PER
                 (UTC) (F)     (DEG/KT/KT) (MB)    (FT/S)
DEVILS ISLAND    1000   42     210/ 11/ 13  992.4F
SAXON HARBOR     0930   49     190/ 13/ 22  993.9S
$$

LMZ867-665-643>646-241100-
LAKE MICHIGAN

STATION/POSITION TIME  TEMP    WIND        PRES    WAVE
                       AIR SEA DIR/SP/G            HT/PER
                 (UTC) (F)     (DEG/KT/KT) (MB)    (FT/S)
N MID LAKE BUOY  0950   45 47  200/ 27/ 31 1002.1F   8/ 6
NORTHPORT PIER   1000   40     180/  5/ 13 1001.0
KEWAUNEE LAKESHO 0954   36     190/ 12/ 13 1002.8F
SHEBOYGAN LAKESH 1000   38     190/ 14/ 15 1005.0F
PORT WASHINGTON  0940   37     190/  5/  7 1007.1F
MILWAUKEE LAKESH 1000   40     220/ 14/ 16   N/A
S MID LAKE BUOY  0950   45 47  230/ 17/ 21 1009.0F   3/ 5
KENOSHA   LAKESH 1000   38     210/  8/ 12 1008.5
$$

TC  - TEMPERATURE IN CELSIUS
VSB - VISIBILITY IN STATUTE MILES
WCI - WIND CHILL INDEX
HX  - HEAT INDEX





USA.gov is the U.S. government's official web portal to all federal, state and local government web resources and services.